Temperature
12 13 13 14 12 11 11 12 14 15 16 19 20 20 19 19 20 19 20 20 20 19 19 18 18 18 18 18 18 17 17 17 17 17 17 17 17 17 17 17 17 17 16 16 16 16 16 16 16
12 12 13 13 10 11 11 12 14 15 17 19 19 19 19 19 19 19 20 20 19 19 18 18 18 18 18 18 17 17 17 17 17 17 17 17 17 17 17 17 17 16 16 16 16 16 16 16 16
11 12 12 10 10 10 12 13 14 16 17 18 18 19 18 18 18 19 20 19 19 19 18 18 18 18 18 17 17 17 17 17 17 16 16 16 16 16 16 16 17 16 16 16 16 16 16 16 15
11 11 11 9 10 10 12 13 14 14 16 17 17 17 18 18 18 18 19 18 18 18 18 18 18 18 17 17 17 17 17 17 16 16 16 16 16 16 16 16 16 16 17 16 16 16 16 16 15
10 10 9 9 9 11 12 13 14 13 14 15 16 15 16 18 18 18 18 18 18 18 18 18 18 17 17 17 17 17 16 16 16 16 16 16 16 16 16 16 16 17 17 16 16 16 16 16 15
10 8 8 8 9 11 11 13 13 13 14 15 15 15 16 17 17 17 17 17 18 18 17 17 17 17 17 17 17 16 16 16 16 16 16 16 16 16 16 16 16 17 17 16 16 16 16 16 15
9 7 8 8 9 10 12 13 13 12 13 14 15 14 15 16 16 17 17 17 17 17 17 17 16 17 16 16 16 16 16 16 16 16 16 16 16 16 16 16 16 16 17 16 16 16 16 16 15
9 7 7 8 9 10 12 12 13 13 13 14 14 14 14 15 16 16 16 16 16 16 16 16 16 16 16 16 16 16 16 16 16 16 16 16 16 16 16 16 16 16 16 16 16 16 16 15 15
9 6 7 8 9 10 11 11 12 12 13 13 14 14 15 15 15 15 15 15 15 15 16 16 16 16 16 16 16 16 16 16 15 15 15 15 15 16 16 16 16 16 16 16 16 16 16 15 15
8 6 7 9 10 10 10 11 11 12 11 12 13 14 14 14 15 15 15 15 15 15 15 15 15 15 15 15 15 15 15 15 15 15 15 15 15 15 16 16 16 16 16 16 16 16 15 15 15
7 6 8 9 10 10 10 10 11 11 10 11 12 13 14 14 14 14 15 15 15 15 15 15 15 15 15 15 15 15 15 15 15 15 15 15 15 15 15 15 15 16 16 16 16 16 15 15 15
7 8 9 9 10 10 10 10 10 10 11 12 12 12 13 13 14 14 14 14 14 14 14 14 14 14 15 15 15 15 15 15 15 15 15 15 15 15 15 15 15 16 16 16 16 15 15 15 15
7 8 9 9 9 9 10 10 10 10 12 12 12 12 12 13 13 13 14 14 14 14 14 14 14 14 14 14 15 15 15 15 15 15 15 15 15 15 15 15 15 15 15 15 15 15 15 15 15
8 8 8 9 9 9 9 9 9 10 11 12 12 12 12 12 13 13 13 13 13 13 14 14 14 14 14 14 14 14 15 15 14 15 15 15 15 15 15 15 15 15 15 15 15 15 15 15 15
8 7 8 8 9 9 9 9 9 11 11 11 11 11 12 12 12 13 13 13 13 13 13 13 13 13 14 14 14 14 14 14 14 14 15 15 15 15 15 15 15 15 15 15 15 15 14 14 14
7 7 7 8 9 9 9 8 10 11 11 11 11 11 11 11 12 12 12 13 13 13 13 13 13 13 13 14 14 14 14 14 14 14 14 14 14 14 15 15 15 15 15 15 14 14 14 14 14
7 6 7 8 9 9 8 8 10 11 10 10 10 11 11 11 11 12 12 12 13 13 13 13 13 13 13 13 13 13 13 14 14 14 14 14 14 14 14 14 15 14 14 14 14 14 14 14 14
6 7 7 7 8 9 8 8 9 10 10 10 10 10 10 10 11 12 12 12 12 13 13 13 13 12 12 13 13 13 13 13 13 13 13 14 14 14 14 14 14 14 14 14 14 14 13 13 13
8 7 7 8 9 8 8 8 9 9 9 9 9 10 10 10 11 11 12 12 12 12 12 12 12 12 12 12 12 13 13 13 13 13 13 13 14 14 13 14 13 13 13 13 13 13 13 13 13
8 7 7 8 9 9 8 8 9 9 9 9 9 9 10 10 10 11 11 11 12 12 12 12 12 12 12 12 12 12 12 12 12 13 13 13 13 13 13 13 13 13 13 13 13 13 13 12 12
8 8 8 8 8 8 8 8 8 8 9 9 9 9 9 9 9 10 10 11 11 11 12 12 12 12 12 12 12 12 12 12 12 12 12 12 13 13 13 13 13 13 13 13 13 12 12 12 12
8 9 9 8 8 7 8 7 8 8 8 8 8 9 9 9 9 9 10 10 11 11 11 11 11 11 11 11 11 12 12 12 12 12 12 12 12 12 13 13 13 13 12 12 12 12 12 12 12
8 9 8 8 8 7 7 7 7 7 7 8 8 8 8 9 9 9 9 10 10 10 11 11 11 11 11 11 11 11 11 11 11 11 11 12 12 12 12 12 12 12 12 12 12 12 12 11 11
9 8 8 7 7 7 8 7 7 7 7 8 8 8 8 8 9 9 9 10 10 10 10 10 10 10 10 10 10 10 10 11 11 11 11 11 11 11 12 12 12 12 12 11 11 11 11 11 11
8 7 7 7 7 7 8 7 7 8 8 8 7 7 8 8 8 8 9 9 9 9 10 10 10 10 10 10 10 10 10 10 10 10 10 11 11 11 11 11 11 11 11 11 11 11 11 11 11
8 7 7 7 7 7 7 7 7 7 8 8 8 7 7 8 8 8 8 8 9 9 9 9 9 9 9 9 9 9 9 9 10 10 10 10 10 10 10 11 11 10 10 10 10 10 10 10 10
8 7 8 7 7 7 7 7 7 7 7 7 7 7 7 7 7 7 8 8 8 8 8 8 8 8 9 9 9 9 9 9 9 9 9 10 10 10 10 10 10 10 10 10 10 10 10 10 10
8 8 6 6 7 7 7 7 6 7 6 6 6 6 7 7 7 7 7 7 7 8 8 8 8 8 8 8 8 8 8 9 9 9 9 9 9 9 9 9 10 10 9 9 9 9 9 9 9
8 8 7 6 6 6 7 7 7 7 7 6 6 7 7 7 7 7 7 7 7 7 7 7 7 7 8 8 8 8 8 8 8 9 9 9 9 8 8 9 9 9 9 9 9 8 8 8 8
8 8 7 6 6 5 5 6 7 6 6 6 6 6 7 6 6 6 6 7 7 7 7 7 7 7 7 7 7 7 7 8 8 8 8 8 8 8 8 8 8 8 8 8 8 8 8 8 8
Wind_Speed
8 8 2 4 3 2 10 8 4 3 4 5 4 3 4 5 4 4 0 9 12 16 19 22 23 22 21 20 20 20 19 19 19 19 19 19 19 19 19 19 18 18 18 18 18 17 17 17 16
5 3 4 4 4 8 8 8 10 8 6 4 5 3 2 3 1 3 4 8 15 15 17 20 22 22 21 20 20 20 20 20 19 19 19 19 19 19 19 18 18 18 18 17 17 16 16 15 14
5 2 3 3 6 10 7 4 8 7 8 5 4 4 2 2 0 3 5 12 14 13 16 18 21 22 21 20 20 20 20 20 19 20 19 19 19 19 19 19 18 18 17 17 16 15 15 13 12
3 4 2 4 12 9 6 3 2 4 5 4 2 4 4 2 2 2 8 13 14 11 14 18 21 21 21 20 20 20 20 20 19 20 20 19 19 19 19 18 18 18 17 16 15 14 13 12 10
4 3 3 7 11 6 5 6 6 5 4 5 3 3 5 4 2 6 8 11 13 11 12 17 20 20 20 20 20 20 20 20 20 20 20 20 19 19 19 18 18 17 16 16 15 14 12 10 9
3 2 5 10 10 6 5 5 5 6 6 5 3 3 5 2 4 5 6 7 10 12 11 15 19 19 19 19 20 20 20 20 20 20 20 20 20 19 19 19 18 17 16 15 14 13 12 10 8
4 3 5 5 5 6 6 4 5 5 7 5 2 3 4 2 1 3 5 6 7 9 10 10 14 16 17 18 19 20 20 20 20 20 20 20 20 19 19 19 18 17 16 15 14 12 11 9 7
4 2 4 4 5 6 3 2 3 4 7 4 2 3 4 4 2 2 5 6 6 7 9 9 9 11 13 14 17 19 20 20 19 20 20 19 19 18 19 18 18 17 16 15 13 12 10 8 6
3 2 6 5 5 4 2 3 5 4 4 4 3 3 5 6 1 2 4 5 5 6 7 8 8 9 10 12 14 16 18 19 19 19 20 19 17 17 17 17 17 16 15 14 13 12 10 7 5
4 5 8 5 4 4 5 5 5 4 5 5 5 5 5 2 1 2 5 6 6 8 7 7 8 8 9 10 11 11 13 15 15 16 17 16 15 15 15 17 17 17 15 14 13 11 9 7 5
6 7 5 7 7 6 7 7 5 5 8 7 6 7 5 2 2 3 5 6 7 8 8 7 7 8 8 7 9 8 9 11 13 15 16 15 13 13 13 13 14 14 14 12 11 10 9 7 6
5 7 8 6 6 6 8 6 6 8 11 8 7 7 6 5 4 4 5 5 6 7 7 8 7 7 7 7 7 7 7 7 9 13 15 13 9 8 10 9 11 11 11 10 9 8 8 8 8
7 7 9 9 9 8 10 10 9 12 12 8 8 7 6 7 6 5 5 6 6 7 7 8 8 8 7 6 6 7 7 8 10 13 15 14 9 8 8 9 10 10 11 9 7 7 6 6 6
5 7 8 9 10 8 10 12 7 11 8 7 6 7 7 7 6 4 4 5 5 6 7 7 8 8 7 6 5 6 7 9 10 11 14 16 12 9 8 7 8 9 11 11 9 8 6 5 5
3 5 8 8 7 5 5 10 11 12 7 7 7 7 7 6 5 5 5 5 6 5 5 6 8 8 8 7 6 6 7 9 8 10 14 15 14 12 9 8 7 9 11 11 8 7 5 4 4
2 2 4 5 4 4 4 10 9 7 6 7 7 6 5 5 5 4 4 4 5 5 5 5 6 7 7 6 6 5 6 7 7 9 11 13 14 13 9 8 7 9 10 8 5 5 4 4 4
2 3 4 5 3 2 5 8 8 5 6 7 7 6 4 3 3 3 2 2 4 5 5 4 4 5 6 5 5 4 4 5 6 8 8 10 12 12 9 7 6 9 6 5 6 5 4 4 4
4 4 4 5 3 3 5 8 9 4 4 5 4 3 2 3 4 2 1 1 3 5 5 4 4 4 4 4 3 3 3 3 4 5 7 9 10 11 9 6 7 7 6 5 5 5 4 4 4
4 4 6 6 4 3 5 8 8 4 1 2 2 2 2 3 2 2 2 2 3 4 4 4 4 3 4 3 3 3 3 3 4 5 7 8 9 10 8 7 7 7 7 8 7 5 4 3 3
6 6 6 5 2 2 3 5 4 2 1 2 2 1 2 1 3 3 3 2 3 3 4 4 3 3 3 3 3 2 3 3 4 4 4 6 7 9 8 8 7 7 6 7 7 5 4 3 4
5 5 4 3 3 1 2 4 4 3 2 3 3 3 3 3 4 3 3 2 2 2 3 3 3 3 3 3 2 2 1 1 2 2 3 4 6 7 8 8 8 7 7 8 8 8 7 5 5
4 3 3 2 1 2 1 1 3 3 5 5 4 4 3 3 4 4 4 3 2 2 2 2 3 3 2 2 2 3 3 3 3 4 4 4 4 5 6 7 7 7 7 7 8 7 5 6 6
3 2 2 2 1 1 1 1 3 2 3 3 3 3 4 4 4 4 4 3 3 3 3 2 3 2 2 2 2 2 2 2 2 3 4 4 4 5 5 5 7 7 7 7 7 7 6 6 6
2 1 1 1 1 1 2 2 2 2 2 1 2 3 4 5 5 5 4 4 5 5 4 3 3 2 1 1 1 2 2 2 2 3 4 4 4 4 5 5 5 6 6 7 7 7 7 7 6
2 3 2 3 3 1 1 2 2 3 0 2 2 3 4 5 5 5 6 7 6 7 6 5 5 3 2 1 0 1 1 3 4 4 4 4 4 3 5 5 5 5 5 6 7 7 7 8 8
1 3 3 2 2 1 2 0 2 2 1 3 4 4 4 4 5 5 6 6 5 6 6 5 5 4 4 2 1 1 1 2 3 3 3 4 4 4 5 6 5 6 6 5 6 6 7 7 8
0 1 3 4 1 1 1 1 2 3 4 4 5 5 4 4 5 5 5 5 5 5 5 4 4 4 4 4 4 3 2 2 2 3 3 3 3 3 4 5 6 6 6 6 5 5 7 7 8
1 1 3 3 2 1 2 2 3 2 1 2 3 3 3 4 4 5 5 5 5 5 4 5 5 4 4 4 4 4 3 2 1 1 2 2 3 3 4 5 5 5 6 6 6 5 6 7 7
2 2 2 2 3 3 1 4 3 6 5 4 3 2 3 3 3 3 4 4 4 5 5 5 5 5 5 5 4 4 4 3 3 1 2 2 2 3 4 4 5 5 5 5 5 5 6 7 7
2 1 2 3 0 2 2 4 2 4 4 4 3 2 2 2 2 3 3 4 5 6 6 5 5 5 5 4 5 5 5 5 5 3 3 3 2 3 4 4 4 4 4 4 5 5 5 6 7
Wind_Direction
344 343 37 60 77 218 236 230 226 219 227 226 251 243 220 216 206 223 137 137 137 152 160 162 162 160 159 157 156 155 153 152 150 148 145 143 141 139 137 133 130 127 123 119 117 115 114 113 111
350 1 58 80 164 218 246 227 231 241 250 296 298 289 280 254 227 137 133 151 145 150 157 162 163 162 161 160 159 158 157 156 154 153 151 148 146 143 140 137 134 129 126 123 121 119 118 117 115
348 30 103 139 200 213 220 214 215 243 269 285 293 303 270 247 196 171 173 150 144 150 155 160 163 163 163 162 161 160 160 159 157 155 154 153 151 147 143 140 136 131 128 126 126 125 124 120 115
47 53 71 207 230 227 224 269 317 311 301 292 287 300 299 292 271 176 146 145 143 149 154 159 162 164 163 163 163 163 162 162 160 158 157 156 154 151 145 141 138 134 132 131 131 132 130 124 117
61 96 184 235 241 245 259 288 313 312 291 311 329 289 289 304 39 107 134 146 146 149 152 159 161 163 164 165 165 166 165 165 163 160 159 158 155 151 147 143 141 140 138 138 137 137 136 131 122
75 112 195 232 241 251 263 277 297 293 286 299 315 284 268 289 103 120 131 151 152 151 154 160 162 163 166 168 168 170 169 167 166 163 162 159 156 153 149 147 146 146 144 144 144 144 143 139 130
127 158 217 236 252 256 252 260 262 270 280 277 270 269 274 277 138 129 128 131 148 151 150 155 161 163 166 170 172 172 170 168 167 165 163 160 156 155 153 151 152 152 151 151 151 152 152 150 142
145 157 234 234 238 252 264 280 258 255 264 265 242 225 260 278 297 119 118 123 139 151 153 151 151 158 161 167 172 171 169 168 166 163 160 158 156 157 156 157 158 158 157 157 158 160 162 162 156
122 189 228 224 222 248 287 289 285 283 258 270 251 231 259 291 281 126 124 131 150 160 163 158 157 153 157 162 168 168 168 168 165 162 159 157 157 158 159 162 163 163 163 164 167 170 173 175 177
153 213 228 228 236 265 287 282 281 295 290 284 287 289 286 302 227 174 169 169 174 176 175 165 163 160 158 165 163 165 169 168 167 165 162 161 161 162 164 166 167 168 170 173 177 180 183 187 194
191 220 239 247 251 265 276 277 267 253 264 253 259 279 283 265 245 213 191 184 188 183 179 171 168 164 163 159 160 162 165 167 168 167 167 165 163 165 165 168 171 171 173 177 182 185 191 194 202
230 245 244 254 252 256 261 262 266 246 249 248 251 259 261 258 243 227 215 191 185 181 180 174 172 170 164 159 164 163 162 166 172 173 170 168 169 170 172 174 176 176 180 181 184 189 198 205 215
238 258 259 261 265 253 259 257 261 258 253 256 260 260 246 249 247 246 226 199 186 183 183 177 169 167 168 161 171 171 171 175 178 178 176 174 175 175 176 179 181 183 184 184 188 194 200 210 217
242 260 274 269 260 255 251 261 256 259 252 248 239 243 238 240 245 242 209 189 193 189 186 180 177 172 169 171 174 178 179 178 180 184 184 180 178 178 178 179 183 187 188 190 193 196 201 211 210
268 283 287 262 242 234 236 265 243 246 241 244 239 241 244 244 249 237 217 188 189 192 188 187 183 180 177 180 180 185 184 183 185 189 187 184 182 181 180 181 185 190 190 190 191 196 200 210 213
279 268 277 269 229 215 191 257 255 234 216 235 238 240 244 244 244 235 224 188 178 174 184 187 190 181 181 183 179 183 186 184 186 187 187 185 184 183 181 183 188 191 189 187 192 194 197 210 210
244 249 255 285 238 208 203 257 273 238 211 235 240 240 239 256 261 231 231 195 163 156 165 170 170 172 181 183 181 167 174 181 179 181 185 186 184 182 183 186 189 190 189 195 202 199 193 204 209
224 239 254 259 267 251 248 263 285 284 224 232 242 238 226 241 235 182 155 183 137 134 147 145 145 161 176 173 166 152 150 180 181 181 183 183 183 181 183 185 188 189 193 201 206 206 204 203 199
231 244 265 265 260 256 256 273 290 301 295 235 230 198 231 243 175 125 139 144 106 111 129 137 137 155 167 168 165 170 184 191 198 192 186 186 184 184 185 186 189 192 199 204 201 205 204 209 180
236 251 271 288 274 256 287 296 314 314 258 221 177 173 213 112 90 105 114 111 124 133 125 133 150 143 147 162 169 167 181 197 208 202 195 199 196 193 191 189 195 197 199 202 202 198 202 211 189
233 232 249 259 315 301 321 344 1 8 43 55 65 76 62 98 96 91 78 62 110 124 138 148 143 129 134 140 137 137 136 167 193 208 206 216 215 208 201 194 193 198 199 205 208 203 202 213 213
253 231 209 240 312 314 51 334 337 3 39 52 47 41 47 68 83 85 77 64 68 94 102 109 116 115 119 125 132 156 179 196 208 204 215 218 218 211 209 202 196 201 205 209 211 209 212 204 215
231 223 227 242 232 328 13 135 310 357 30 31 29 40 50 50 66 71 71 76 77 82 89 91 95 104 98 122 156 162 195 205 204 195 213 220 220 218 209 204 199 204 209 212 211 211 214 213 215
217 52 3 46 85 356 288 158 309 308 277 24 31 44 53 48 50 54 49 49 44 45 53 65 75 80 120 127 137 163 184 191 192 200 219 227 230 227 215 210 205 210 213 212 214 213 214 219 219
59 86 49 22 25 303 0 107 278 280 250 118 84 51 53 53 53 54 51 49 45 44 43 50 58 45 31 59 12 226 202 208 208 212 218 228 235 245 226 219 218 221 224 221 217 217 217 218 221
247 141 148 164 189 304 10 113 273 311 69 85 93 87 68 57 53 54 53 55 50 45 42 44 49 36 25 22 343 323 285 240 225 219 220 226 232 234 232 222 222 226 228 231 227 228 225 223 226
105 201 187 136 110 65 348 340 338 35 54 63 74 76 72 64 59 55 53 51 48 43 36 36 44 36 30 26 22 8 335 281 241 236 229 230 241 242 239 232 226 226 228 231 232 239 236 229 228
185 172 79 100 128 111 314 262 227 225 134 90 83 81 63 54 53 50 46 40 37 35 31 33 37 38 33 27 17 2 351 333 308 278 269 261 257 249 243 244 235 233 229 225 229 238 241 238 237
8 39 82 101 132 144 210 271 227 193 177 157 138 111 88 73 64 49 38 31 31 30 31 30 26 26 23 18 9 6 1 359 358 334 292 276 267 256 242 239 235 228 226 225 231 241 243 242 240
224 191 136 137 188 134 160 265 307 178 167 143 129 108 83 73 59 49 47 38 32 29 24 23 18 17 12 7 6 4 5 5 3 353 333 326 302 271 249 237 236 236 231 227 226 239 245 241 241
Height
1509 1510 1513 1516 1519 1523 1518 1511 1505 1502 1501 1500 1499 1498 1497 1498 1500 1502 1495 1493 1495 1497 1500 1503 1506 1509 1512 1514 1516 1519 1521 1523 1525 1527 1529 1531 1533 1535 1536 1538 1539 1540 1542 1543 1544 1545 1546 1547 1548
1508 1510 1514 1515 1520 1523 1516 1507 1503 1500 1498 1498 1498 1496 1495 1494 1494 1494 1492 1493 1495 1498 1500 1503 1506 1509 1511 1513 1516 1518 1521 1523 1525 1528 1530 1532 1533 1535 1537 1538 1540 1541 1542 1544 1545 1546 1547 1548 1549
1507 1509 1512 1514 1516 1513 1508 1500 1499 1497 1498 1498 1497 1495 1495 1494 1493 1493 1492 1493 1495 1498 1500 1502 1505 1508 1510 1513 1515 1518 1520 1523 1525 1527 1530 1532 1534 1535 1537 1539 1540 1542 1543 1545 1546 1547 1549 1549 1550
1507 1510 1511 1513 1508 1503 1500 1497 1497 1497 1496 1496 1496 1495 1494 1494 1493 1492 1492 1493 1495 1497 1499 1501 1504 1507 1510 1512 1515 1517 1520 1523 1525 1527 1530 1532 1534 1536 1537 1539 1541 1542 1544 1545 1547 1548 1550 1550 1551
1506 1508 1512 1510 1504 1500 1497 1496 1496 1497 1497 1496 1496 1494 1492 1492 1492 1491 1492 1493 1494 1496 1499 1501 1504 1506 1509 1512 1514 1517 1519 1522 1525 1527 1529 1531 1533 1535 1537 1539 1541 1543 1544 1546 1548 1549 1550 1551 1552
1506 1507 1512 1508 1502 1498 1496 1496 1496 1496 1495 1495 1495 1493 1491 1490 1490 1490 1492 1493 1494 1495 1498 1500 1503 1506 1508 1511 1513 1516 1519 1521 1524 1527 1529 1531 1533 1535 1537 1539 1541 1543 1545 1546 1548 1549 1551 1552 1553
1505 1508 1507 1505 1501 1498 1495 1495 1496 1495 1494 1494 1494 1493 1490 1490 1490 1490 1491 1492 1494 1495 1497 1499 1502 1505 1508 1510 1513 1515 1518 1521 1523 1526 1528 1531 1533 1535 1537 1539 1541 1543 1545 1546 1548 1550 1551 1552 1553
1503 1507 1505 1503 1500 1497 1494 1494 1494 1493 1492 1492 1492 1491 1489 1489 1489 1489 1490 1491 1492 1495 1496 1498 1500 1503 1506 1508 1511 1514 1517 1520 1522 1525 1528 1530 1532 1535 1537 1539 1541 1543 1544 1546 1548 1550 1551 1552 1553
1502 1508 1504 1500 1497 1495 1493 1493 1492 1491 1490 1489 1489 1489 1488 1487 1486 1487 1488 1490 1491 1493 1495 1497 1499 1501 1504 1506 1509 1513 1516 1518 1521 1524 1526 1529 1531 1534 1536 1538 1540 1542 1544 1546 1548 1549 1551 1552 1553
1501 1504 1498 1494 1493 1493 1492 1491 1490 1489 1487 1486 1485 1485 1485 1485 1485 1485 1485 1487 1488 1491 1493 1495 1497 1500 1502 1505 1508 1511 1514 1517 1520 1522 1525 1528 1530 1533 1535 1537 1539 1541 1543 1545 1547 1548 1550 1551 1552
1497 1497 1492 1491 1491 1491 1490 1489 1488 1487 1484 1483 1483 1482 1482 1483 1483 1483 1483 1485 1487 1489 1491 1493 1495 1498 1500 1502 1506 1508 1511 1515 1518 1521 1523 1526 1529 1531 1533 1536 1538 1540 1542 1544 1545 1547 1548 1550 1551
1495 1491 1490 1488 1488 1488 1487 1486 1485 1483 1480 1480 1480 1481 1480 1480 1480 1480 1480 1481 1484 1486 1488 1491 1493 1495 1498 1500 1503 1506 1509 1512 1515 1518 1521 1524 1526 1529 1531 1534 1536 1538 1540 1542 1544 1545 1547 1548 1550
1491 1488 1486 1485 1484 1484 1484 1482 1481 1477 1476 1476 1476 1477 1477 1477 1477 1477 1477 1478 1481 1483 1486 1489 1491 1493 1495 1498 1501 1504 1507 1510 1513 1516 1519 1522 1524 1527 1529 1532 1534 1536 1538 1540 1542 1543 1545 1546 1547
1488 1486 1483 1482 1481 1480 1480 1478 1478 1472 1473 1473 1473 1474 1474 1475 1475 1474 1475 1476 1478 1481 1483 1486 1489 1491 1493 1496 1498 1501 1504 1508 1511 1514 1517 1519 1522 1525 1527 1529 1531 1534 1536 1538 1539 1541 1543 1544 1545
1486 1485 1482 1478 1477 1477 1478 1475 1472 1469 1470 1469 1469 1470 1471 1472 1472 1472 1471 1473 1475 1478 1480 1483 1487 1489 1491 1493 1496 1499 1502 1505 1508 1511 1514 1517 1520 1522 1524 1526 1529 1531 1533 1535 1537 1538 1540 1541 1542
1485 1486 1484 1476 1474 1474 1479 1474 1466 1466 1466 1466 1466 1467 1468 1468 1468 1468 1469 1470 1472 1475 1477 1480 1484 1486 1488 1491 1493 1496 1499 1502 1505 1508 1511 1514 1517 1519 1521 1523 1526 1528 1530 1532 1533 1535 1536 1537 1538
1486 1486 1483 1477 1473 1473 1475 1470 1463 1463 1463 1463 1463 1464 1464 1464 1465 1465 1466 1467 1469 1471 1475 1477 1480 1483 1486 1488 1491 1493 1496 1499 1502 1505 1508 1510 1513 1516 1518 1520 1522 1525 1526 1528 1530 1531 1532 1533 1534
1486 1484 1481 1478 1472 1472 1472 1467 1462 1461 1461 1460 1460 1460 1460 1461 1461 1462 1463 1465 1466 1469 1472 1475 1477 1480 1483 1485 1487 1490 1493 1496 1499 1501 1504 1507 1510 1512 1514 1516 1518 1520 1522 1524 1526 1527 1528 1530 1531
1479 1479 1479 1474 1471 1471 1469 1466 1462 1461 1460 1459 1458 1458 1459 1459 1459 1460 1462 1464 1464 1467 1470 1472 1475 1477 1480 1482 1484 1486 1488 1492 1495 1497 1500 1503 1506 1508 1510 1511 1514 1516 1517 1519 1521 1523 1524 1525 1527
1477 1478 1476 1472 1469 1469 1468 1466 1462 1461 1460 1458 1457 1457 1458 1458 1457 1459 1461 1462 1463 1465 1467 1469 1472 1474 1476 1479 1481 1484 1486 1488 1491 1493 1496 1499 1502 1503 1505 1507 1509 1511 1513 1514 1516 1518 1519 1520 1522
1474 1475 1474 1473 1469 1468 1469 1468 1464 1462 1460 1459 1457 1457 1458 1458 1458 1459 1459 1461 1462 1464 1466 1468 1470 1472 1474 1476 1478 1481 1483 1484 1487 1489 1491 1494 1497 1498 1500 1502 1504 1506 1508 1509 1511 1513 1513 1514 1516
1473 1470 1470 1470 1472 1473 1471 1475 1468 1465 1463 1460 1460 1459 1458 1458 1458 1458 1459 1461 1461 1462 1464 1466 1468 1470 1472 1474 1476 1478 1479 1479 1481 1484 1487 1490 1492 1494 1496 1497 1499 1501 1503 1504 1505 1507 1508 1509 1509
1470 1468 1469 1469 1472 1474 1473 1475 1472 1467 1466 1464 1462 1461 1460 1459 1459 1459 1460 1460 1461 1461 1463 1464 1466 1468 1469 1471 1473 1475 1476 1477 1479 1481 1483 1485 1488 1490 1491 1492 1494 1495 1497 1498 1500 1501 1502 1503 1504
1468 1469 1469 1471 1474 1476 1474 1476 1476 1471 1468 1465 1464 1462 1461 1460 1460 1460 1460 1460 1460 1461 1462 1464 1464 1466 1468 1469 1470 1472 1472 1473 1475 1477 1479 1480 1482 1484 1486 1487 1488 1490 1491 1492 1494 1495 1496 1497 1498
1470 1475 1480 1480 1482 1478 1474 1475 1475 1468 1466 1465 1464 1464 1463 1462 1462 1462 1461 1461 1461 1461 1462 1463 1464 1465 1466 1467 1468 1469 1469 1471 1472 1473 1475 1476 1477 1479 1480 1482 1483 1484 1485 1487 1488 1489 1489 1490 1491
1470 1474 1481 1482 1482 1480 1477 1477 1475 1469 1467 1466 1466 1466 1465 1465 1464 1463 1463 1463 1463 1463 1463 1463 1463 1464 1465 1465 1466 1466 1467 1468 1469 1470 1471 1472 1473 1474 1475 1477 1478 1479 1480 1481 1481 1482 1483 1483 1484
1470 1473 1472 1479 1481 1483 1480 1478 1473 1470 1469 1468 1467 1467 1466 1466 1466 1465 1465 1465 1464 1464 1464 1464 1464 1464 1464 1463 1463 1464 1464 1465 1465 1466 1467 1468 1468 1469 1470 1471 1472 1473 1474 1474 1475 1475 1476 1476 1477
1470 1470 1476 1479 1481 1483 1481 1480 1478 1473 1471 1470 1469 1468 1467 1467 1467 1467 1467 1466 1466 1465 1464 1464 1463 1463 1463 1463 1462 1462 1462 1462 1462 1463 1463 1464 1464 1465 1465 1465 1466 1467 1467 1468 1468 1468 1469 1469 1469
1472 1472 1475 1480 1480 1484 1483 1481 1470 1470 1469 1469 1469 1469 1468 1468 1468 1468 1467 1467 1466 1465 1464 1463 1462 1462 1462 1461 1461 1460 1460 1459 1459 1459 1459 1459 1459 1460 1460 1460 1461 1461 1461 1461 1461 1461 1462 1462 1462
1471 1471 1474 1481 1483 1486 1487 1483 1468 1468 1468 1469 1469 1470 1470 1469 1469 1468 1468 1467 1466 1465 1464 1463 1462 1461 1461 1460 1459 1458 1457 1456 1456 1455 1455 1455 1455 1455 1455 1455 1456 1456 1456 1456 1455 1455 1456 1455 1455